Simultaneous Nadir Overpasses (SNOs) Predictions

Prediction of SNOs between LANDSAT-8 and METOP-A Satellite Orbit:

Table of predicted SNOs for the next 14.0 days since TLE Epoch: 7/11/2020
Index Date (LANDSAT-8) Time (LANDSAT-8) Lat,Lon (LANDSAT-8) SZA (LANDSAT-8 ) Date (METOP-A) Time (METOP-A) Lat,Lon (METOP-A) SZA (METOP-A ) Distance(km) Time Diff (sec)
1 07/11/2020 16:34:51 -81.46, 157.61 117.91 07/11/2020 16:34:07 -81.47, 157.50 117.93 2.04 44
2 07/11/2020 17:24:17 81.47, -34.60 62.12 07/11/2020 17:24:47 81.46, -34.74 62.12 2.37 30
3 07/14/2020 12:09:06 -81.47,-135.83 117.49 07/14/2020 12:08:27 -81.47,-135.92 117.52 1.50 39
4 07/14/2020 12:58:33 81.46, 31.54 62.48 07/14/2020 12:59:08 81.47, 31.42 62.50 2.40 35
5 07/17/2020 07:43:22 -81.47, -69.30 117.02 07/17/2020 07:42:48 -81.46, -69.35 117.05 1.26 34
6 07/17/2020 08:32:49 81.46, 98.04 62.95 07/17/2020 08:33:29 81.46, 97.96 62.96 1.54 40
7 07/20/2020 03:17:39 -81.46, -3.19 116.56 07/20/2020 03:17:10 -81.47, -3.19 116.57 1.09 29
8 07/20/2020 04:07:05 81.46, 164.52 63.46 07/20/2020 04:07:50 81.46, 164.49 63.47 0.54 45
9 07/22/2020 22:51:54 -81.46, 63.28 116.01 07/22/2020 22:51:30 -81.46, 63.35 116.01 1.26 24
